GW2075 Weather Reports


time (UTC)temp
F
wind
direction
speed
knots
gust
knots
rain 1hr
in
rain 24hr
in
rain mn
in
humidity
%
barometer
mb
20260505124955 66 162 3.5 4.3 0.00 0.00 0.00 68 1013.5
20260505124452 65 187 2.6 5.2 0.00 0.00 0.00 68 1013.5
20260505123948 65 251 3.5 7.8 0.00 0.00 0.00 68 1013.5
20260505123445 64 275 4.3 7.0 0.00 0.00 0.00 69 1013.5
20260505122941 64 215 4.3 5.2 0.00 0.00 0.00 70 1013.5
20260505122438 64 286 0.9 5.2 0.00 0.00 0.00 71 1013.3
20260505121935 63 197 5.2 7.0 0.00 0.00 0.00 70 1013.5
20260505121432 63 197 4.3 7.8 0.00 0.00 0.00 70 1013.5
20260505120927 63 213 5.2 7.0 0.00 0.00 0.00 71 1013.5
20260505120424 63 255 4.3 7.0 0.00 0.00 0.00 71 1013.5
20260505115923 62 219 3.5 7.0 0.00 0.00 0.00 71 1013.5
20260505115420 62 206 4.3 6.1 0.00 0.00 0.00 71 1013.3
20260505114918 62 212 5.2 7.0 0.00 0.00 0.00 72 1013.2
20260505114414 62 275 1.7 2.6 0.00 0.00 0.00 73 1013.2
20260505113910 61 214 3.5 5.2 0.00 0.00 0.00 73 1012.9
20260505113407 61 196 3.5 5.2 0.00 0.00 0.00 74 1013.1
20260505112903 60 185 2.6 5.2 0.00 0.00 0.00 75 1013.0
20260505112401 60 299 1.7 5.2 0.00 0.00 0.00 75 1013.0
20260505111856 60 5 4.3 6.1 0.00 0.00 0.00 74 1013.0
20260505111352 60 301 1.7 2.6 0.00 0.00 0.00 75 1012.8
20260505110848 60 204 2.6 5.2 0.00 0.00 0.00 75 1012.6
20260505110345 60 221 3.5 4.3 0.00 0.00 0.00 75 1012.7
20260505101815 59 224 4.3 6.1 0.00 0.00 0.00 76 1012.1
20260505101310 59 214 3.5 6.1 0.00 0.00 0.00 77 1012.0
20260505100807 59 215 2.6 5.2 0.00 0.00 0.00 76 1012.0
20260505100304 59 222 5.2 7.0 0.00 0.00 0.00 76 1012.1
20260505095759 59 196 3.5 6.1 0.00 0.00 0.00 76 1012.1
20260505095257 60 196 3.5 7.8 0.00 0.00 0.00 75 1012.1
20260505094752 60 271 2.6 6.1 0.00 0.00 0.00 75 1011.9
20260505094249 60 241 2.6 7.8 0.00 0.00 0.00 74 1012.0
20260505093745 60 209 6.1 7.0 0.00 0.00 0.00 74 1012.0
20260505093243 60 215 2.6 7.0 0.00 0.00 0.00 74 1011.7
20260505092740 60 170 0.9 5.2 0.00 0.00 0.00 74 1012.1
20260505092238 60 295 1.7 5.2 0.00 0.00 0.00 74 1011.9
20260505091735 60 156 2.6 5.2 0.00 0.00 0.00 74 1011.9
20260505091233 60 263 2.6 2.6 0.00 0.00 0.00 74 1011.7
20260505090730 60 210 2.6 5.2 0.00 0.00 0.00 74 1011.6
20260505090229 60 310 1.7 2.6 0.00 0.00 0.00 74 1011.8
20260505085726 60 318 2.6 5.2 0.00 0.00 0.00 74 1011.5
20260505085224 60 219 3.5 4.3 0.00 0.00 0.00 74 1011.6
20260505084721 60 265 1.7 4.3 0.00 0.00 0.00 74 1011.6
20260505084220 61 171 2.6 5.2 0.00 0.00 0.00 73 1011.4
20260505083716 61 152 2.6 4.3 0.00 0.00 0.00 72 1011.6
20260505083213 61 335 1.7 4.3 0.00 0.00 0.00 72 1011.6
20260505082709 61 250 1.7 6.1 0.00 0.00 0.00 71 1011.5
20260505082207 61 253 2.6 5.2 0.00 0.00 0.00 71 1011.7
20260505081702 62 268 3.5 7.8 0.00 0.00 0.00 70 1011.6
20260505081200 62 319 0.9 4.3 0.00 0.00 0.00 70 1011.7
20260505080657 62 178 3.5 6.1 0.00 0.00 0.00 70 1011.6
20260505080152 62 221 2.6 5.2 0.00 0.00 0.00 70 1011.6
20260505075648 62 263 2.6 5.2 0.00 0.00 0.00 69 1011.6
20260505075145 62 200 2.6 5.2 0.00 0.00 0.00 70 1011.5
20260505074643 62 262 1.7 4.3 0.00 0.00 0.00 69 1011.5
20260505074139 62 196 2.6 6.1 0.00 0.00 0.00 69 1011.5
20260505073637 62 195 2.6 5.2 0.00 0.00 0.00 69 1011.4
20260505073135 62 228 1.7 2.6 0.00 0.00 0.00 69 1011.4
20260505072630 62 210 2.6 5.2 0.00 0.00 0.00 69 1011.1
20260505072127 62 223 1.7 2.6 0.00 0.00 0.00 69 1011.3
20260505071623 62 248 2.6 4.3 0.00 0.00 0.00 70 1011.3
20260505071121 62 264 1.7 4.3 0.00 0.00 0.00 70 1011.2
20260505070618 61 304 0.9 1.7 0.00 0.00 0.00 71 1011.1
20260505070114 61 215 1.7 2.6 0.00 0.00 0.00 71 1011.3
20260505065610 62 328 0.0 5.2 0.00 0.00 0.00 71 1011.2
20260505065107 62 223 2.6 4.3 0.00 0.00 0.00 70 1011.3
20260505064604 61 211 2.6 4.3 0.00 0.00 0.00 71 1011.3
20260505064103 62 296 1.7 1.7 0.00 0.00 0.00 71 1011.4
20260505063559 62 283 0.9 2.6 0.00 0.00 0.00 70 1011.4
20260505063055 62 194 1.7 4.3 0.00 0.00 0.00 70 1011.6
20260505062551 62 288 0.9 2.6 0.00 0.00 0.00 70 1011.6
20260505062049 62 307 1.7 2.6 0.00 0.00 0.00 70 1011.9
20260505061546 62 212 2.6 4.3 0.00 0.00 0.00 70 1011.5
20260505061044 62 241 1.7 6.1 0.00 0.00 0.00 70 1011.7
20260505060541 62 332 1.7 4.3 0.00 0.00 0.00 70 1011.6
20260505060038 62 223 1.7 5.2 0.00 0.00 0.00 69 1011.5
20260505055533 63 209 4.3 5.2 0.00 0.00 0.00 69 1011.8
20260505055030 63 217 5.2 7.0 0.00 0.00 0.00 68 1011.7
20260505054527 63 174 2.6 6.1 0.00 0.00 0.00 68 1011.7
20260505054026 63 214 2.6 6.1 0.00 0.00 0.00 68 1011.7
20260505053522 63 184 2.6 5.2 0.00 0.00 0.00 68 1011.8
20260505053019 64 203 3.5 5.2 0.00 0.00 0.00 67 1011.7
20260505052516 64 200 3.5 5.2 0.00 0.00 0.00 66 1011.8
20260505052014 64 234 4.3 5.2 0.00 0.00 0.00 66 1011.9
20260505051510 64 208 3.5 5.2 0.00 0.00 0.00 65 1011.8
20260505051009 64 216 2.6 6.1 0.00 0.00 0.00 65 1011.6
20260505050506 64 289 1.7 7.0 0.00 0.00 0.00 65 1011.6
20260505041434 64 209 3.5 7.0 0.00 0.00 0.00 63 1011.6
20260505040931 64 203 2.6 6.1 0.00 0.00 0.00 64 1011.4
20260505040428 65 222 2.6 4.3 0.00 0.00 0.00 63 1011.5
20260505035925 64 169 3.5 4.3 0.00 0.00 0.00 63 1011.3
20260505035421 65 299 4.3 5.2 0.00 0.00 0.00 62 1011.3
20260505034919 65 206 4.3 6.1 0.00 0.00 0.00 62 1011.3
20260505034415 65 128 3.5 7.0 0.00 0.00 0.00 61 1011.3
20260505033912 65 172 2.6 2.6 0.00 0.00 0.00 62 1011.3
20260505033409 65 220 2.6 5.2 0.00 0.00 0.00 61 1011.4
20260505032907 65 250 1.7 2.6 0.00 0.00 0.00 62 1011.2
20260505032403 65 241 2.6 5.2 0.00 0.00 0.00 61 1011.1
20260505031900 65 220 2.6 7.0 0.00 0.00 0.00 61 1011.5
20260505031357 65 219 4.3 6.1 0.00 0.00 0.00 61 1011.2
20260505030854 65 258 2.6 5.2 0.00 0.00 0.00 61 1011.2
20260505030350 65 282 3.5 6.1 0.00 0.00 0.00 60 1011.4
20260505025845 64 232 4.3 7.8 0.00 0.00 0.00 62 1011.5
20260505025343 64 236 4.3 6.1 0.00 0.00 0.00 62 1011.2
20260505024842 64 272 0.9 5.2 0.00 0.00 0.00 62 1011.6
20260505024339 64 221 3.5 4.3 0.00 0.00 0.00 61 1011.2
20260505023836 65 192 2.6 4.3 0.00 0.00 0.00 60 1011.1
20260505023333 65 225 3.5 6.1 0.00 0.00 0.00 60 1011.4
20260505022830 65 167 2.6 4.3 0.00 0.00 0.00 60 1011.3
20260505022327 66 209 2.6 7.0 0.00 0.00 0.00 59 1011.2
20260505021825 66 248 2.6 6.1 0.00 0.00 0.00 58 1011.2
20260505021321 66 232 2.6 5.2 0.00 0.00 0.00 58 1011.1
20260505020817 66 232 4.3 8.7 0.00 0.00 0.00 57 1011.2
20260505020312 66 257 2.6 5.2 0.00 0.00 0.00 58 1011.0
20260505015809 67 238 3.5 5.2 0.00 0.00 0.00 57 1011.1
20260505015307 67 242 4.3 6.1 0.00 0.00 0.00 56 1011.3
20260505014804 67 33 3.5 6.1 0.00 0.00 0.00 55 1011.2
20260505014301 67 139 4.3 7.0 0.00 0.00 0.00 55 1011.0
20260505013757 66 230 2.6 5.2 0.00 0.00 0.00 56 1010.9
20260505013255 66 147 3.5 5.2 0.00 0.00 0.00 55 1010.6
20260505012753 67 295 3.5 7.0 0.00 0.00 0.00 55 1011.0
20260505012250 67 196 2.6 5.2 0.00 0.00 0.00 55 1010.9
20260505011745 67 230 2.6 5.2 0.00 0.00 0.00 55 1011.0
20260505011243 67 200 1.7 4.3 0.00 0.00 0.00 54 1011.0
20260505010738 67 193 2.6 4.3 0.00 0.00 0.00 54 1011.0
20260505010235 67 204 1.7 6.1 0.00 0.00 0.00 54 1010.7
20260505005731 67 3 0.9 4.3 0.00 0.00 0.00 54 1010.6
20260505005228 67 183 1.7 2.6 0.00 0.00 0.00 53 1010.8
20260505004726 67 200 4.3 5.2 0.00 0.00 0.00 52 1010.6
20260505004222 68 177 3.5 5.2 0.00 0.00 0.00 52 1010.2
20260505003719 68 276 1.7 5.2 0.00 0.00 0.00 52 1010.3
20260505003217 68 193 3.5 7.0 0.00 0.00 0.00 51 1010.6
20260505002713 68 240 4.3 7.8 0.00 0.00 0.00 51 1010.7
20260505002211 68 200 3.5 5.2 0.00 0.00 0.00 51 1010.4
20260505001708 68 194 2.6 4.3 0.00 0.00 0.00 51 1010.6
20260505001205 68 214 4.3 8.7 0.00 0.00 0.00 50 1010.6
20260505000702 69 248 1.7 6.1 0.00 0.00 0.00 51 1010.3
20260505000200 69 206 4.3 5.2 0.00 0.00 0.00 50 1010.7
20260504235656 69 328 3.5 4.3 0.00 0.00 0.00 50 1010.2
20260504235152 69 184 5.2 7.8 0.00 0.00 0.00 49 1010.1
20260504234650 69 217 2.6 5.2 0.00 0.00 0.00 49 1010.2
20260504234147 70 297 2.6 2.6 0.00 0.00 0.00 49 1010.2
20260504233643 70 165 2.6 5.2 0.00 0.00 0.00 48 1010.2
20260504233138 71 246 1.7 2.6 0.00 0.00 0.00 49 1010.2
20260504232636 71 251 1.7 1.7 0.00 0.00 0.00 48 1010.1
20260504232128 71 202 2.6 2.6 0.00 0.00 0.00 47 1010.2
20260504231624 71 187 2.6 5.2 0.00 0.00 0.00 48 1010.2
20260504231121 71 216 5.2 6.1 0.00 0.00 0.00 47 1010.1
20260504230617 71 235 2.6 7.0 0.00 0.00 0.00 47 1010.3
20260504230116 72 219 4.3 7.8 0.00 0.00 0.00 46 1010.2
20260504225614 72 197 2.6 4.3 0.00 0.00 0.00 48 1010.6
20260504225110 72 293 2.6 6.1 0.00 0.00 0.00 46 1010.2
20260504224607 72 196 5.2 7.8 0.00 0.00 0.00 47 1010.7
20260504224104 73 306 2.6 2.6 0.00 0.00 0.00 47 1010.6
20260504223601 72 217 4.3 5.2 0.00 0.00 0.00 46 1010.2
20260504223056 73 302 2.6 6.1 0.00 0.00 0.00 47 1010.4
20260504222553 72 343 2.6 4.3 0.00 0.00 0.00 48 1010.9
20260504222050 72 222 3.5 5.2 0.00 0.00 0.00 47 1010.4
20260504221548 73 227 3.5 5.2 0.00 0.00 0.00 46 1010.4
20260504221044 74 181 6.1 7.8 0.00 0.00 0.00 44 1010.4
20260504220541 74 225 2.6 5.2 0.00 0.00 0.00 47 1010.6
20260504220038 74 242 4.3 5.2 0.00 0.00 0.00 45 1010.4
20260504215534 74 295 2.6 5.2 0.00 0.00 0.00 47 1010.4
20260504215032 74 270 3.5 7.8 0.00 0.00 0.00 46 1010.4
20260504214528 74 211 4.3 7.8 0.00 0.00 0.00 45 1010.4
20260504214024 73 201 7.0 8.7 0.00 0.00 0.00 45 1010.6
20260504213521 73 210 4.3 8.7 0.00 0.00 0.00 45 1010.6
20260504213018 74 207 5.2 13.0 0.00 0.00 0.00 44 1010.7
20260504212514 74 227 4.3 7.0 0.00 0.00 0.00 45 1010.2
20260504212011 74 232 5.2 8.7 0.00 0.00 0.00 44 1010.8
20260504211508 73 208 6.1 7.8 0.00 0.00 0.00 44 1010.3
20260504211006 73 213 7.0 8.7 0.00 0.00 0.00 45 1010.6
20260504210502 74 216 5.2 7.0 0.00 0.00 0.00 47 1010.8
20260504205959 74 240 3.5 7.0 0.00 0.00 0.00 48 1010.6
20260504205457 74 197 6.1 9.6 0.00 0.00 0.00 45 1010.7
20260504204955 74 206 4.3 7.0 0.00 0.00 0.00 44 1010.4
20260504204452 74 148 6.1 12.2 0.00 0.00 0.00 45 1010.4
20260504203951 74 191 6.1 7.0 0.00 0.00 0.00 43 1010.4
20260504203449 73 237 3.5 7.0 0.00 0.00 0.00 46 1010.6
20260504202945 73 207 5.2 7.8 0.00 0.00 0.00 45 1010.7
20260504202441 73 107 7.0 9.6 0.00 0.00 0.00 45 1010.7
20260504201938 73 197 7.8 12.2 0.00 0.00 0.00 44 1010.7
20260504201435 73 216 6.1 11.3 0.00 0.00 0.00 46 1010.8
20260504200933 72 226 6.1 9.6 0.00 0.00 0.00 45 1011.1
20260504200430 73 267 2.6 8.7 0.00 0.00 0.00 48 1011.2
20260504195926 73 180 6.1 11.3 0.00 0.00 0.00 45 1011.2
20260504195422 72 244 6.1 9.6 0.00 0.00 0.00 45 1011.4
20260504194919 72 222 4.3 8.7 0.00 0.00 0.00 47 1011.1
20260504194415 73 180 5.2 7.0 0.00 0.00 0.00 46 1011.5
20260504193911 73 227 7.8 11.3 0.00 0.00 0.00 45 1011.5
20260504193408 72 201 5.2 11.3 0.00 0.00 0.00 48 1011.6
20260504192907 72 216 5.2 6.1 0.00 0.00 0.00 43 1011.5
20260504192404 72 317 6.1 8.7 0.00 0.00 0.00 46 1011.7
20260504191903 72 214 2.6 7.8 0.00 0.00 0.00 48 1012.0
20260504191400 72 217 4.3 7.8 0.00 0.00 0.00 46 1012.0
20260504190855 71 180 7.8 9.6 0.00 0.00 0.00 45 1012.4
20260504190351 72 230 7.8 14.8 0.00 0.00 0.00 45 1012.3
20260504185848 72 269 5.2 7.8 0.00 0.00 0.00 44 1012.1
20260504185345 71 295 4.3 7.8 0.00 0.00 0.00 48 1012.1
20260504184841 72 257 6.1 7.0 0.00 0.00 0.00 46 1012.3
20260504184337 72 243 5.2 7.0 0.00 0.00 0.00 46 1012.3
20260504183833 72 190 5.2 7.8 0.00 0.00 0.00 46 1012.7
20260504183331 71 207 5.2 7.0 0.00 0.00 0.00 46 1012.7
20260504182828 71 130 3.5 7.0 0.00 0.00 0.00 46 1012.8
20260504182326 71 249 6.1 8.7 0.00 0.00 0.00 44 1012.8
20260504181822 71 197 4.3 7.8 0.00 0.00 0.00 48 1012.8
20260504181320 70 213 7.8 11.3 0.00 0.00 0.00 46 1013.1
20260504180819 70 183 6.1 7.0 0.00 0.00 0.00 48 1013.0
20260504180317 70 202 7.0 9.6 0.00 0.00 0.00 46 1013.1
20260504175814 70 224 8.7 12.2 0.00 0.00 0.00 48 1012.9
20260504175311 70 204 9.6 11.3 0.00 0.00 0.00 45 1013.1
20260504174809 70 248 5.2 7.0 0.00 0.00 0.00 46 1013.2
20260504174306 69 209 3.5 7.0 0.00 0.00 0.00 49 1013.1
20260504173803 69 246 6.1 9.6 0.00 0.00 0.00 45 1013.3
20260504173300 69 268 8.7 9.6 0.00 0.00 0.00 45 1013.2
20260504172756 69 185 7.0 8.7 0.00 0.00 0.00 46 1013.2
20260504172253 69 251 6.1 8.7 0.00 0.00 0.00 46 1013.3
20260504171749 69 310 3.5 6.1 0.00 0.00 0.00 50 1013.3
20260504171247 69 225 7.0 11.3 0.00 0.00 0.00 49 1013.3
20260504170743 69 59 6.1 7.8 0.00 0.00 0.00 47 1013.3
20260504170241 68 223 4.3 6.1 0.00 0.00 0.00 50 1013.3
20260504160159 66 253 2.6 4.3 0.00 0.00 0.00 53 1014.5
20260504151127 65 218 5.2 7.8 0.00 0.00 0.00 47 1014.9
20260504150624 64 198 3.5 6.1 0.00 0.00 0.00 53 1015.1
20260504150121 65 211 4.3 9.6 0.00 0.00 0.00 49 1015.1
20260504141050 62 210 3.5 6.1 0.00 0.00 0.00 54 1015.1
20260504140546 62 175 3.5 6.1 0.00 0.00 0.00 51 1015.3